www.pogodaiklimat.ru

Погода и климат >> Архив погоды >> Норвегия >> Sklinna Fyr


ПОГОДА в Sklinna Fyr

  • Прогноз погоды в Sklinna Fyr
  • Монитор погоды в Sklinna Fyr
  • Климат города

АРХИВ ПОГОДЫ в Sklinna Fyr

Время (UTC), дата Ветер
(напр.,м/с)
 
Видим.   Явления Облачность Т
(С)
Тd
(С)
f
(%)
Тe
(С)
Тes
(С)
Комфортность P
(гПа)
Po
(гПа)
Тmin
(С)
Tmax
(С)
R
(мм)
R24
(мм)
S
(см)
05 19.06 ЮЗ 10
{13}
н/о н/о +10.8 +8.7 87 +7 +7 1010.4 1008.5
04 19.06 ЮЗ 9
{13}
н/о н/о +10.7 +8.8 88 +7 +7 1010.3 1008.4
06 19.06 ЮЗ 10
{16}
н/о н/о +11.2 +9.0 86 +7 +7 1010.3 1008.4 +8.9 +12.2
07 19.06 ЮЗ 10
{14}
н/о н/о +11.1 +9.0 87 +7 +7 1010.1 1008.2
08 19.06 ЮЗ 11
{14}
н/о н/о +11.5 +9.1 85 +7 +7 1009.8 1007.9
09 19.06 ЮЗ 10
{14}
н/о н/о +11.7 +9.1 84 +8 +8 1010.0 1008.1
11 19.06 ЮЗ 11
{15}
н/о н/о +12.2 +9.4 83 +8 +8 1009.6 1007.7
10 19.06 ЮЗ 10
{15}
н/о н/о +11.8 +9.4 85 +8 +8 1009.8 1007.9
12 19.06 ЮЗ 11
{16}
н/о н/о +12.5 +9.3 81 +9 +9 1009.5 1007.6
13 19.06 ЮЗ 12
{16}
н/о н/о +12.0 +9.0 82 +8 +8 1009.3 1007.4
14 19.06 ЮЗ 14
{18}
н/о н/о +11.4 +8.3 81 +7 +7 1008.8 1006.9
15 19.06 ЮЗ 10 н/о н/о +11.1 +8.3 83 +7 +7 1008.7 1006.8
17 19.06 ЮЗ 10
{14}
н/о н/о +11.1 +8.7 85 +7 +7 1007.8 1005.9
16 19.06 ЮЗ 11
{15}
н/о н/о +9.7 +8.3 91 +5 +5 1008.3 1006.4
18 19.06 ЮЗ 9
{18}
н/о н/о +9.8 +8.4 91 +5 +5 1007.2 1005.3 +9.5 +12.8
19 19.06 ЮЗ 10
{13}
н/о н/о +10.3 +8.7 90 +6 +6 1006.6 1004.7
20 19.06 ЮЗ 10
{13}
н/о н/о +10.0 +8.1 88 +5 +5 1006.0 1004.1
21 19.06 ЮЗ 9
{12}
н/о н/о +9.6 +7.6 87 +5 +5 1005.7 1003.8
23 19.06 ЮЗ 10
{14}
н/о н/о +9.5 +7.3 86 +5 +5 1004.9 1003.0
22 19.06 ЮЗ 10
{12}
н/о н/о +9.7 +7.7 87 +5 +5 1005.2 1003.3
00 20.06 ЮЗ 11
{14}
н/о н/о +9.9 +7.3 84 +5 +5 1004.4 1002.5
01 20.06 ЮЗ 11
{15}
н/о н/о +9.6 +7.4 86 +5 +5 1003.9 1002.0
02 20.06 ЮЗ 10
{15}
н/о н/о +9.3 +7.8 90 +4 +4 1003.2 1001.3
03 20.06
{19}
н/о н/о +8.9 +7.5 91 1002.5 1000.6
05 20.06 З 11
{16}
н/о н/о +8.9 +6.7 86 +4 +4 1001.9 1000.0
04 20.06 ЮЗ 9
{13}
н/о н/о +9.2 +7.8 91 +5 +5 1002.1 1000.2
06 20.06 ЮЗ 9
{19}
н/о н/о +9.2 +6.3 82 +5 +5 1001.9 1000.0 +8.2 +10.5
07 20.06 ЮЗ 11
{16}
н/о н/о +9.0 +6.6 85 +4 +4 1001.8 999.9
08 20.06
{15}
н/о н/о +8.0 +6.5 90 1001.8 999.9
09 20.06 ЮЗ 11
{14}
н/о н/о +10.0 +7.6 85 +5 +5 1001.4 999.5
11 20.06 З 12
{17}
н/о н/о +10.9 +6.9 76 +6 +6 1001.6 999.7
10 20.06 ЮЗ 13
{16}
н/о н/о +9.5 +7.6 88 +4 +4 1001.3 999.4
12 20.06 З 12
{17}
н/о н/о +9.8 +7.8 87 +5 +5 1001.9 1000.0
13 20.06 З 9
{13}
н/о н/о +10.2 +6.9 80 +6 +6 1002.3 1000.4
14 20.06 З 11
{14}
н/о н/о +10.5 +6.7 77 +6 +6 1002.7 1000.8
15 20.06 З 11
{16}
н/о н/о +10.2 +7.1 81 +6 +6 1003.2 1001.3
17 20.06 З 12
{15}
н/о н/о +10.6 +7.3 80 +6 +6 1003.9 1002.0
16 20.06 З 13
{15}
н/о н/о +10.5 +7.4 81 +6 +6 1003.5 1001.6
18 20.06 СЗ 12
{16}
н/о н/о +10.8 +7.5 80 +6 +6 1004.7 1002.8 +8.0 +11.2
19 20.06 СЗ 13
{16}
н/о н/о +10.6 +7.7 82 +6 +6 1005.3 1003.4
20 20.06 СЗ 12
{16}
н/о н/о +9.8 +7.1 83 +5 +5 1006.1 1004.2
21 20.06 СЗ 11
{14}
н/о н/о +10.2 +7.5 83 +6 +6 1006.8 1004.9
23 20.06 СЗ 9
{12}
н/о н/о +9.9 +8.3 90 +5 +5 1007.9 1006.0
22 20.06 С 9
{13}
н/о н/о +8.6 +7.4 92 +4 +4 1007.5 1005.6
00 21.06 З 7
{16}
н/о н/о +9.9 +7.7 86 +6 +6 1008.2 1006.3
01 21.06 З 8
{10}
н/о н/о +9.9 +8.0 88 +6 +6 1008.4 1006.5
02 21.06 З 9
{11}
н/о н/о +10.0 +8.1 88 +6 +6 1008.7 1006.8
03 21.06 З 10
{12}
н/о н/о +9.9 +8.0 88 +5 +5 1008.7 1006.8
05 21.06 СЗ 11
{13}
н/о н/о +9.5 +6.6 82 +5 +5 1009.1 1007.2
04 21.06 СЗ 10
{13}
н/о н/о +9.9 +8.2 89 +5 +5 1008.9 1007.0
06 21.06 З 8
{13}
н/о н/о +10.3 +7.6 83 +6 +6 1009.7 1007.8 +7.5 +11.0
07 21.06 З 8
{11}
н/о н/о +10.2 +8.3 88 +6 +6 1010.0 1008.1
08 21.06 СЗ 9
{11}
н/о н/о +11.0 +8.6 85 +7 +7 1010.4 1008.5
09 21.06 СЗ 10
{11}
н/о н/о +11.2 +8.3 82 +7 +7 1010.5 1008.6
11 21.06 З 9
{11}
н/о н/о +11.3 +8.4 82 +8 +8 1011.1 1009.2
10 21.06 З 9
{11}
н/о н/о +11.3 +8.4 82 +8 +8 1010.9 1009.0
12 21.06 З 9
{11}
н/о н/о +12.0 +8.3 78 +9 +9 1011.5 1009.6
13 21.06 З 8
{10}
н/о н/о +11.4 +8.3 81 +8 +8 1011.6 1009.7
14 21.06 З 7
{11}
н/о н/о +11.3 +8.0 80 +8 +8 1011.7 1009.8
15 21.06 З 8
{10}
н/о н/о +11.1 +8.5 84 +7 +7 1011.5 1009.6
17 21.06 СЗ 8
{10}
н/о н/о +10.2 +7.3 82 +6 +6 1011.5 1009.6
16 21.06 З 9
{10}
н/о н/о +11.6 +8.6 82 +8 +8 1011.4 1009.5
18 21.06 СЗ 8
{11}
н/о н/о +10.5 +7.9 84 +7 +7 1011.6 1009.7 +9.8 +12.0
19 21.06 СЗ 7
{9}
н/о н/о +10.3 +7.2 81 +7 +7 1011.8 1009.9
20 21.06 СЗ 6
{9}
н/о н/о +10.3 +6.8 79 +7 +7 1011.6 1009.7
21 21.06 С 7
{9}
н/о н/о +10.1 +6.6 79 +6 +6 1011.6 1009.7
23 21.06 СЗ 8
{9}
н/о н/о +9.9 +6.1 77 +6 +6 1011.6 1009.7
22 21.06 СЗ 6
{8}
н/о н/о +10.0 +6.7 80 +7 +7 1011.7 1009.8
00 22.06 СЗ 7
{9}
н/о н/о +9.9 +6.4 79 +6 +6 1011.5 1009.6
01 22.06 СЗ 7
{8}
н/о н/о +9.8 +6.3 79 +6 +6 1011.3 1009.4
02 22.06 СЗ 6
{8}
н/о н/о +9.8 +6.9 82 +6 +6 1011.2 1009.3
03 22.06 С 6
{8}
н/о н/о +9.6 +5.4 75 +6 +6 1011.1 1009.2
05 22.06 С 7
{8}
н/о н/о +9.9 +3.9 66 +6 +6 1010.6 1008.7
04 22.06 С 5
{7}
н/о н/о +9.7 +5.3 74 +7 +7 1010.9 1009.0
06 22.06 С 6
{8}
н/о н/о +10.1 +4.9 70 +7 +7 1010.6 1008.7 +9.5 +11.5
07 22.06 СЗ 5
{6}
н/о н/о +10.4 +5.2 70 +8 +8 1010.2 1008.3
08 22.06 С 5
{7}
н/о н/о +10.2 +6.6 78 +7 +7 1010.3 1008.4
09 22.06 С 4
{5}
н/о н/о +10.5 +6.5 76 +8 +8 1010.2 1008.3
11 22.06 С 4
{6}
н/о н/о +10.0 +4.6 69 +7 +7 1009.8 1007.9
10 22.06 С 5
{6}
н/о н/о +10.9 +6.1 72 +8 +8 1010.0 1008.1
12 22.06 С 4
{7}
н/о н/о +10.6 +5.0 68 +8 +8 1009.9 1008.0
13 22.06 С 4
{6}
н/о н/о +10.5 +4.7 67 +8 +8 1009.9 1008.0
14 22.06 С 5
{6}
н/о н/о +10.5 +4.4 66 +8 +8 1009.5 1007.6
15 22.06 С 5
{7}
н/о н/о +10.9 +4.4 64 +8 +8 1009.1 1007.2
17 22.06 С 5
{7}
н/о н/о +10.8 +4.5 65 +8 +8 1008.5 1006.6
16 22.06 С 4 н/о н/о +10.8 +5.1 68 +9 +9 1008.8 1006.9
18 22.06 СВ 5
{7}
н/о н/о +10.9 +4.4 64 +8 +8 1008.0 1006.1 +9.9 +11.2
19 22.06 СВ 5
{7}
н/о н/о +10.8 +4.3 64 +8 +8 1007.5 1005.6
20 22.06 СВ 6
{7}
н/о н/о +10.6 +4.5 66 +8 +8 1007.3 1005.4
21 22.06 СВ 6
{7}
н/о н/о +10.8 +5.6 70 +8 +8 1007.0 1005.1
23 22.06 СВ 6
{7}
н/о н/о +9.4 +6.1 80 +6 +6 1006.5 1004.6
22 22.06 СВ 5
{7}
н/о н/о +9.6 +5.6 76 +6 +6 1006.8 1004.9
00 23.06 СВ 5
{7}
н/о н/о +9.3 +6.7 84 +6 +6 1006.4 1004.5
01 23.06 СВ 6
{7}
н/о н/о +9.5 +7.6 88 +6 +6 1006.0 1004.1
02 23.06 В 5
{7}
н/о н/о +10.5 +7.6 82 +8 +8 1005.7 1003.8
03 23.06 В 5
{6}
н/о н/о +10.4 +7.5 82 +7 +7 1005.1 1003.2
05 23.06 В 3
{4}
н/о н/о +11.9 +8.8 81 +10 +10 1004.8 1002.9
04 23.06 В 3
{5}
н/о н/о +11.1 +7.8 80 +9 +9 1005.1 1003.2
06 23.06 В 4
{7}
н/о н/о +12.1 +8.8 80 +10 +10 1004.3 1002.4 +9.2 +12.4
07 23.06 В 4
{5}
н/о н/о +12.6 +8.7 77 +11 +11 1004.2 1002.3
08 23.06 В 3
{5}
н/о н/о +13.5 +9.2 75 +12 +12 1004.0 1002.1
09 23.06 СВ 4
{5}
н/о н/о +13.8 +9.1 73 +12 +12 1003.6 1001.7
11 23.06 СВ 4
{5}
н/о н/о +13.9 +9.0 72 +12 +12 1002.8 1000.9
10 23.06 СВ 5
{6}
н/о н/о +14.2 +8.4 68 +13 +13 1003.1 1001.2
12 23.06 СВ 3
{6}
н/о н/о +13.4 +9.8 79 +12 +12 1002.4 1000.5
13 23.06 СВ 4
{6}
н/о н/о +14.6 +8.1 65 +13 +13 1001.8 1000.0
14 23.06 СВ 5
{7}
н/о н/о +14.1 +8.5 69 +12 +12 1001.1 999.3
15 23.06 СВ 5
{7}
н/о н/о +13.9 +8.7 71 +12 +12 1000.4 998.6
17 23.06 СВ 6
{8}
н/о н/о +13.3 +8.8 74 +11 +11 999.2 997.4
16 23.06 СВ 6
{7}
н/о н/о +13.5 +8.4 71 +11 +11 999.8 998.0
18 23.06 СВ 6
{8}
н/о н/о +13.2 +8.5 73 +11 +11 998.3 996.5 +12.1 +14.9
19 23.06 СВ 5
{7}
н/о н/о +12.8 +9.3 79 +11 +11 997.8 996.0
20 23.06 СВ 5
{7}
н/о н/о +12.5 +9.7 83 +10 +10 997.3 995.4
21 23.06 В 1
{10}
н/о н/о +13.2 +9.1 76 +13 +13 996.9 995.1
23 23.06 ЮВ 4
{5}
н/о н/о +12.8 +11.0 89 +11 +11 996.4 994.6
22 23.06 В 3
{5}
н/о н/о +12.8 +10.2 84 +11 +11 996.6 994.8
00 24.06 Ю 6
{10}
н/о н/о +12.4 +11.3 93 +10 +10 996.2 994.4
01 24.06 ЮЗ 4
{7}
н/о н/о +11.3 +10.2 93 +9 +9 996.1 994.2
02 24.06 З 6
{8}
н/о н/о +11.2 +10.0 92 +8 +8 996.0 994.1
03 24.06 З 5
{7}
н/о н/о +11.0 +9.8 92 +8 +8 995.9 994.0
05 24.06 ЮЗ 9
{11}
н/о н/о +10.8 +9.9 94 +7 +7 995.7 993.8
04 24.06 ЮЗ 5
{6}
н/о н/о +11.0 +9.8 92 +8 +8 996.0 994.1
06 24.06 З 11
{14}
н/о н/о +10.8 +9.4 91 +6 +6 995.9 994.0 +10.8 +13.4
07 24.06 ЮЗ 10
{13}
н/о н/о +11.0 +9.3 89 +7 +7 996.3 994.4
08 24.06 ЮЗ 10
{12}
н/о н/о +11.1 +8.9 86 +7 +7 996.6 994.7
09 24.06 ЮЗ 8
{12}
н/о н/о +11.7 +8.7 82 +8 +8 996.8 994.9
11 24.06 ЮЗ 6
{9}
н/о н/о +11.8 +8.1 78 +9 +9 997.0 995.1
10 24.06 ЮЗ 8
{11}
н/о н/о +11.8 +8.1 78 +9 +9 996.9 995.0
12 24.06 ЮЗ 6
{13}
н/о н/о +12.0 +8.9 81 +9 +9 997.0 995.1
13 24.06 ЮЗ 5
{7}
н/о н/о +12.2 +8.7 79 +10 +10 997.1 995.2
14 24.06 ЮЗ 5
{7}
н/о н/о +12.8 +8.9 77 +11 +11 996.9 995.1
15 24.06 ЮЗ 4
{7}
н/о н/о +12.6 +9.1 79 +11 +11 996.6 994.8
17 24.06 З 4
{6}
н/о н/о +11.9 +8.8 81 +10 +10 996.4 994.5
16 24.06 ЮЗ 4
{6}
н/о н/о +13.1 +9.2 77 +11 +11 996.5 994.7
18 24.06 ЮЗ 4
{7}
н/о н/о +12.3 +9.0 80 +10 +10 996.0 994.2 +10.8 +13.3
19 24.06 ЮЗ 4
{5}
н/о н/о +11.5 +8.9 84 +9 +9 996.0 994.1
20 24.06 З 5
{6}
н/о н/о +10.8 +8.0 83 +8 +8 996.0 994.1
21 24.06 З 4
{5}
н/о н/о +10.4 +7.6 83 +8 +8 995.9 994.0
23 24.06 З 5
{5}
н/о н/о +10.1 +7.7 85 +7 +7 995.5 993.6
22 24.06 З 4
{5}
н/о н/о +10.3 +7.9 85 +8 +8 995.6 993.7
00 25.06 З 5
{6}
н/о н/о +10.0 +7.8 86 +7 +7 995.1 993.2
01 25.06 З 5
{6}
н/о н/о +10.2 +8.0 86 +7 +7 994.8 992.9
02 25.06 З 4
{5}
н/о н/о +10.2 +7.8 85 +8 +8 994.4 992.5
03 25.06 З 3
{4}
н/о н/о +10.4 +8.0 85 +8 +8 993.9 992.0
05 25.06 СЗ 3
{4}
н/о н/о +10.6 +7.8 83 +9 +9 993.1 991.2
04 25.06 СЗ 4
{5}
н/о н/о +10.6 +7.5 81 +8 +8 993.3 991.4
06 25.06 СЗ 3
{6}
н/о н/о +10.9 +8.0 82 +9 +9 992.9 991.0 +10.0 +12.8
07 25.06 СЗ 3
{4}
н/о н/о +11.1 +8.0 81 +9 +9 992.6 990.7
08 25.06 СЗ 5
{6}
н/о н/о +10.9 +8.0 82 +8 +8 992.3 990.4
09 25.06 СЗ 4
{6}
н/о н/о +11.4 +7.3 76 +9 +9 992.2 990.4
11 25.06 С 4
{5}
н/о н/о +11.9 +8.2 78 +10 +10 992.0 990.2
10 25.06 С 3
{5}
н/о н/о +11.8 +7.9 77 +10 +10 992.1 990.3
12 25.06 С 5
{6}
н/о н/о +11.6 +8.1 79 +9 +9 992.0 990.2
13 25.06 С 5
{7}
н/о н/о +11.2 +8.4 83 +8 +8 991.8 990.0
14 25.06 С 6
{7}
н/о н/о +11.3 +8.5 83 +8 +8 991.6 989.8
15 25.06 С 7
{8}
н/о н/о +11.3 +8.5 83 +8 +8 991.4 989.6
17 25.06 СЗ 8
{11}
н/о н/о +10.0 +8.8 92 +6 +6 991.3 989.4
16 25.06 С 8
{9}
н/о н/о +10.4 +8.5 88 +6 +6 991.4 989.5
18 25.06 СЗ 7
{11}
н/о н/о +10.0 +9.1 94 +6 +6 990.9 989.0 +9.8 +12.2
19 25.06 С 7
{9}
н/о н/о +10.3 +9.2 93 +7 +7 990.7 988.8
20 25.06 С 7
{9}
н/о н/о +10.5 +9.3 92 +7 +7 990.6 988.7
21 25.06 С 10
{12}
н/о н/о +10.6 +10.0 96 +6 +6 990.2 988.4
23 25.06 С 11
{14}
н/о н/о +10.5 +10.0 97 +6 +6 990.7 988.8
22 25.06 С 11
{13}
н/о н/о +10.6 +10.1 97 +6 +6 990.4 988.5
00 26.06 С 11
{14}
н/о н/о +10.3 +10.0 98 +6 +6 990.6 988.7
01 26.06 С 12
{15}
н/о н/о +10.1 +9.7 97 +5 +5 990.7 988.8
02 26.06 С 13
{16}
н/о н/о +10.0 +9.4 96 +5 +5 990.9 989.0

 

Местоположение метеостанции Sklinna Fyr (Норвегия): широта 65.20 долгота 11.00 высота над уровнем моря 23 м.

В архиве по умолчанию представлена погода в Sklinna Fyr за последнюю неделю. Архивные данные за месяц целиком и за предыдущие месяцы, начиная с января 2011 года, Вы можете получить, выбрав интересующий диапазон дат из раскрывающегося списка и нажав кнопку "Ввод!".

Внимание! Время в таблицах - всемирное. Для получения местного времени необходимо прибавить поправку, которая в Sklinna Fyr равна 1 ч.

Смотрите также архив погоды в соседних городах и на ближайших метеорологических станциях:

Погода в Rorvik Lufthavn (Норвегия) (42 км)
Погода в S?mna-Kval?yfjellet (Норвегия) (46 км)
Погода в Nordoyan Fyr (Норвегия) (49 км)
Погода в Bronnoysund Lufthavn (Норвегия) (64 км)
Погода в Vega-Vallsjo (Норвегия) (68 км)
Погода в Namsos Lufthavn (Норвегия) (86 км)
Погода в Buholmrasa Fyr (Норвегия) (93 км)
Погода в Tjotta (Норвегия) (96 км)
Погода в Gartland (Норвегия) (99 км)
Погода в Namsskogan (Норвегия) (101 км)

Пояснения к столбцам:

Ветер - указаны скорость ветра в м/с - средняя за 10 мин, порывы в срок и между сроками (в фигурных скобках) и направление, откуда дует ветер: С - северный, СВ - северо-восточный, В - восточный, ЮВ - юго-восточный, Ю - южный, ЮЗ - юго-западный, З - западный, СЗ - северо-западный.
Видимость - горизонтальная дальность видимости в метрах или километрах. При видимости от 1 до 10 км при отсутствии осадков обычно наблюдается дымка, при ухудшении видимости до 1 км и менее - туман. В сухую погоду видимость может ухудшаться дымом, пылью или мглою.
Явления - указаны атмосферные явления, наблюдавшиеся в срок или в последний час перед сроком; фигурными скобками обозначены явления, наблюдавшиеся между сроками (за 1-3 часа до срока); квадратными скобками обозначены град или гололедные отложения с указанием их диаметра в мм.
Облачность - указаны через наклонную черту общая и нижняя облачность в баллах и высота нижней границы облаков в метрах; квадратными скобками обозначены формы облаков: Ci - перистые, Cs - перисто-слоистые, Cc - перисто-кучевые, Ac - высококучевые, As - высокослоистые, Sc - слоисто-кучевые, Ns - слоисто-дождевые, Cu - кучевые, Cb - кучево-дождевые. Подробнее классификацию облаков см. в Атласе облаков (PDF).
T - Температура воздуха - температура, измеренная на высоте 2 м над землей.
Td - Температура точки росы - температура, при понижении до которой содержащийся в воздухе водяной пар достигнет насыщения.
f - Относительная влажность воздуха - влажноcть воздуха, измеренная на высоте 2 м над землей.
Te - Эффективная температура - температура, которую ощущает одетый по сезону человек в тени. Характеристика душности погоды. При расчете учитывается влияние влажности воздуха и скорости ветра на теплоощущения человека.
Tes - Эффективная температура на солнце - температура, которую ощущает человек, с поправкой на солнечный нагрев. Характеристика знойности погоды. Зависит от высоты солнца над горизонтом, облачности и скорости ветра. Ночью, в пасмурную погоду, а также при ветре 12 м/с и более поправка равна нулю.
P - Атмосферное давление - приведенное к уровню моря атмосферное давление.
Po - Атмосферное давление - измеренное на уровне метеостанции атмосферное давление.
Tmin - Минимальная температура - минимум температуры воздуха на высоте 2 м над землей.
Tmax - Максимальная температура - максимум температуры воздуха на высоте 2 м над землей.
R - Количество осадков - Количество выпавших осадков за период времени, мм. При наведении курсора мыши на число - период времени, за который выпало указанное количество осадков.
R24 - Количество осадков - Количество выпавших осадков за 24 часа, мм.
S - Снежный покров - Высота снежного покрова, см. При наведении курсора мыши на число - состояние снежного покрова и степень покрытия местности в баллах.